sat.trackr.live / text

‹ back to catalog

STARLINK-34240

NORAD 64265 · 2025-120K

PAYLOAD ACTIVE UNKNOWN

§ Identity

Operator
Country
US
Launch date
2025-06-04
Launch site
AFWTR
Launch vehicle
Mass (kg)
RCS (m²)

Purposes: comms

External: N2YO · Heavens-Above · Gunter

§ Orbital elements

Epoch: 2026-05-25T04:34:06.043008Z

Period
94.10 min
Inclination
53.1607°
Eccentricity
0.0001459
Mean motion
15.30215217 rev/d
Perigee alt
474.2 km
Apogee alt
476.2 km
Semi-major
6,853.3 km
B*
5.9357e-4
RAAN
121.7119°
Arg perigee
92.9506°
Mean anomaly
267.1662°
Rev number
5,562

§ Raw data

STARLINK-342401 64265U 25120K   26145.19034772  .00017270  00000+0  59357-3 0  99922 64265  53.1607 121.7119 0001459  92.9506 267.1662 15.30215217 55624

JSON: /api/v1/satellites/64265 · /tle

For live sub-satellite position, see the globe view (requires WebGL).

§ Visibility from observer

Set your observer location to see the next 7 days of passes ≥ 10°. The values pass through the URL so the page stays shareable.

No JS? Fill the form by hand. The geolocation button needs JavaScript.